Location: Allaines
(49.9632°N, 2.9458°E)
Time: 03:50:40
(UTC+00:00)

X-37B - Pass Details

Date: 28 June 2021
Orbit: 383 x 392 km, 45.0° (Epoch: 01 July)

Event Time Altitude Azimuth Distance (km) Brightness Sun altitude
Rises 22:02:50 0° 264° (W) 2,258 4.7 -12.9°
Reaches altitude 10° 22:05:04 10° 252° (WSW) 1,403 3.5 -13.1°
Maximum altitude 22:07:49 28° 191° (S) 751 1.6 -13.3°
Enters shadow 22:08:22 26° 171° (S) 785 1.5 -13.3°
